This is the latest recevied weather packets stored in our database for station/object MIDVIL-WX. If no packets are shown the sender has not sent any weather packets the latest 1 day(s).
| Time | Temp. | Humidity | Pressure | Rain* | Wind** | Luminosity | Snow |
|---|---|---|---|---|---|---|---|
| 1778032849 | 8.33° C | 47% | 983.7 hPa | 0 mm | 1.34 m/s, 274° | - | - |
| 1778031926 | 8.33° C | 42% | 983.3 hPa | 0 mm | 1.34 m/s, 287° | - | - |
| 1778031047 | 8.89° C | 42% | 983.3 hPa | 0 mm | 1.79 m/s, 292° | - | - |
| 1778030128 | 8.33° C | 42% | 983.3 hPa | 0 mm | 2.24 m/s, 287° | - | - |
| 1778029251 | 8.33° C | 42% | 983.3 hPa | 0 mm | 1.79 m/s, 292° | - | - |
| 1778028326 | 9.44° C | 36% | 983.3 hPa | 0 mm | 1.79 m/s, 289° | - | - |
| 1778027441 | 9.44° C | 37% | 983.6 hPa | 0 mm | 2.24 m/s, 285° | - | - |
| 1778026526 | 10° C | 37% | 983.6 hPa | 0 mm | 2.68 m/s, 295° | - | - |
| 1778025655 | 10.56° C | 37% | 983.6 hPa | 0 mm | 3.58 m/s, 297° | - | - |
| 1778024726 | 10.56° C | 35% | 983.4 hPa | 0 mm | 4.02 m/s, 297° | - | - |
| 1778023843 | 11.11° C | 34% | 983.3 hPa | 0 mm | 4.02 m/s, 295° | - | - |
| 1778022926 | 11.11° C | 34% | 983.3 hPa | 0 mm | 4.47 m/s, 293° | - | - |
| 1778022051 | 11.11° C | 34% | 983.3 hPa | 0 mm | 4.92 m/s, 292° | - | - |
| 1778021126 | 11.11° C | 35% | 983.3 hPa | 0 mm | 4.92 m/s, 292° | - | - |
| 1778020245 | 11.67° C | 35% | 983.6 hPa | 0 mm | 5.36 m/s, 288° | - | - |
| 1778019326 | 11.67° C | 35% | 983.6 hPa | 0 mm | 5.81 m/s, 286° | - | - |
| 1778018454 | 11.67° C | 35% | 983.6 hPa | 0 mm | 5.81 m/s, 284° | - | - |
| 1778017525 | 12.22° C | 37% | 983.3 hPa | 0 mm | 5.81 m/s, 282° | - | - |
| 1778016645 | 11.67° C | 36% | 983 hPa | 0 mm | 5.81 m/s, 279° | - | - |
| 1778015725 | 12.22° C | 36% | 983 hPa | 0 mm | 6.26 m/s, 280° | - | - |
| 1778014854 | 12.22° C | 36% | 983 hPa | 0 mm | 6.26 m/s, 280° | - | - |
| 1778013925 | 12.22° C | 38% | 983.4 hPa | 0 mm | 6.26 m/s, 279° | - | - |
| 1778013046 | 12.22° C | 36% | 982.5 hPa | 0 mm | 6.26 m/s, 276° | - | - |
| 1778012125 | 12.22° C | 36% | 982.5 hPa | 0 mm | 6.71 m/s, 276° | - | - |
| 1778011253 | 12.22° C | 36% | 982.5 hPa | 0 mm | 6.71 m/s, 274° | - | - |
* Rain latest hour (hover to see other rain measurements)
** Current wind speed in m/s (hover to see current wind gust speed)